AirNav   ProFlight Series 2 Aviation Headset
 
 906 users online  

42MI Turner Heliport
Birch Run, Michigan, USA

GOING TO BIRCH RUN?


FAA INFORMATION EFFECTIVE 18 JUNE 2020

Location

FAA Identifier: 42MI
Lat/Long: 43-17-27.9900N 083-44-25.9400W
43-17.466500N 083-44.432333W
43.2911083,-83.7405389
(estimated)
Elevation: 652 ft. / 199 m (estimated)
From city: 4 miles NE of BIRCH RUN, MI
Time zone: UTC -4 (UTC -5 during Standard Time)
Zip code: 48415

Heliport Operations

Heliport use: Private use. Permission required prior to landing
Activation date: 12/2015
Control tower: no
ARTCC: CLEVELAND CENTER
FSS: LANSING FLIGHT SERVICE STATION
Attendance: UNATNDD
Segmented circle: no

Heliport Communications

WX AWOS-3 at HYX (10 nm NW): 118.325 (989-752-3408)
WX AWOS-3 at CFS (16 nm NE): 119.275 (989-672-4182)
WX ASOS at FNT (20 nm S): 133.15 (810-342-7804)

Nearby radio navigation aids

VOR radial/distance  VOR name  Freq  Var
FNTr007/19.5FLINT VORTAC116.9006W
MBSr138/20.6SAGINAW VOR/DME112.9003W

Heliport Services

Runway Information

Helipad H1

Dimensions: 50 x 50 ft. / 15 x 15 m
Surface: turf
Traffic pattern: leftleft

Heliport Ownership and Management from official FAA records

Ownership: Privately-owned
Owner: JEFF TURNER
10720 BUSCH RD
BIRCH RUN, MI 48415-9224
Phone 989-652-2049
Manager: JEFF TURNER
10720 BUSCH RD
BIRCH RUN, MI 48415-9224
Phone 989-652-2049

Heliport Operational Statistics

Aircraft based on the field: 3
Single engine airplanes: 1
Jet airplanes: 1
Helicopters: 1
    
Aircraft operations: 150/year
100% local general aviation

Additional Remarks

FOR CD CTC GREAT LAKES APCH AT 269-459-3345, WHEN APCH CLSD CTC CLEVELAND ARTCC AT 440-774-0224/0490.

Instrument Procedures

There are no published instrument procedures at 42MI.

Some nearby airports with instrument procedures:

KHYX - Saginaw County H W Browne Airport (10 nm NW)
KCFS - Tuscola Area Airport (16 nm NE)
3CM - James Clements Municipal Airport (17 nm NW)
KFNT - Bishop International Airport (20 nm S)
KMBS - MBS International Airport (21 nm NW)
 
Loc | Ops | Rwys | IFR | FBO | Links
Com | Nav | Svcs | Stats | Notes
Aerial photo
No photo
 
Airport distance calculator
Flying to Turner Heliport? Find the distance to fly.

From to 42MI

Sunrise and sunset
Times for 07-Jul-2020
 Local
(UTC-4)
 Zulu
(UTC)
Morning civil twilight05:2909:29
Sunrise06:0410:04
Sunset21:1601:16
Evening civil twilight21:5101:51

Current date and time
Zulu (UTC)  08-Jul-2020 01:28:13
Local (UTC-4)  07-Jul-2020 21:28:13
 
METAR
KHYX 
10nm NW 
080115Z AUTO 20005KT 10SM CLR 23/19 A2991 RMK AO2
KCFS 
16nm NE 
080115Z AUTO 20003KT 10SM CLR 26/20 A2991 RMK AO2 T02630202
KFNT 
19nm S 
080053Z 28004KT 10SM FEW110 24/20 A2992 RMK AO2 RAB03E43 SLP127 P0001 T02390200
TAF
KFNT 
19nm S 
072003Z 0720/0818 31015KT P6SM SCT060 TEMPO 0720/0723 5SM -TSRA BKN050CB FM080100 27003KT P6SM FEW070 FM080900 VRB03KT P6SM SCT100 FM081600 VRB05KT P6SM SCT060 BKN100
KMBS 
21nm NW 
071720Z 0718/0818 20008KT P6SM SCT060 TEMPO 0718/0722 5SM -TSRA BKN050CB FM080100 27003KT P6SM FEW070 FM080900 VRB03KT P6SM SCT100 FM081600 VRB05KT P6SM SCT060 BKN100
NOTAMs
Click for the latest NOTAMs
NOTAMs are issued by the DoD/FAA and will open in a separate window not controlled by AirNav.

 

 
 

Would you like to see your business listed on this page?

 If your business provides an interesting product or service to pilots, flight crews, aircraft, or users of the Turner Heliport, you should consider listing it here.  To start the listing process, click on the button below
 
Add a business
 

Other Pages about Turner Heliport

Update a link
 
Copyright © AirNav, LLC. All rights reserved. Privacy Policy  Contact